GW2328 Weather Reports


Display with metric or nautical units.
time (UTC)temp
F
wind
direction
speed
MPH
gust
MPH
rain 1hr
in
rain 24hr
in
rain mn
in
humidity
%
barometer
mb
20260901003815 83 149 0.0 0.0 0.00 0.00 0.00 75 1021.4
20260901003310 83 149 0.0 0.0 0.00 0.00 0.00 74 1021.2
20260901002808 84 149 0.0 0.0 0.00 0.00 0.00 74 1021.2
20260901002305 84 149 0.0 0.0 0.00 0.00 0.00 73 1021.1
20260901001758 85 149 0.0 0.0 0.00 0.00 0.00 72 1021.1
20260901001254 85 149 0.0 0.0 0.00 0.00 0.00 71 1021.3
20260901000748 86 149 0.0 0.0 0.00 0.00 0.00 70 1021.4
20260901000241 86 149 0.0 0.0 0.00 0.00 0.00 70 1021.2
20260831235737 87 149 0.0 0.0 0.00 0.00 0.00 69 1021.1
20260831235233 87 149 0.0 0.0 0.00 0.00 0.00 68 1021.0
20260831234728 88 149 0.0 0.0 0.00 0.00 0.00 66 1021.1
20260831234227 88 149 0.0 0.0 0.00 0.00 0.00 65 1021.2
20260831233723 89 149 0.0 0.0 0.00 0.00 0.00 65 1020.9
20260831233218 89 190 0.0 1.0 0.00 0.00 0.00 64 1021.1
20260831232712 89 152 0.0 0.0 0.00 0.00 0.00 64 1021.0
20260831232209 89 148 0.0 1.0 0.00 0.00 0.00 63 1021.2
20260831231705 90 150 0.0 0.0 0.00 0.00 0.00 63 1021.1
20260831231201 90 148 0.0 0.0 0.00 0.00 0.00 62 1020.9
20260831230701 90 149 0.0 0.0 0.00 0.00 0.00 61 1021.0
20260831230156 90 147 0.0 0.0 0.00 0.00 0.00 61 1020.9
20260831225655 91 148 0.0 1.0 0.00 0.00 0.00 61 1020.9
20260831225150 91 148 0.0 3.0 0.00 0.00 0.00 60 1021.2
20260831224645 91 153 0.0 0.0 0.00 0.00 0.00 59 1020.9
20260831224140 91 149 0.0 2.0 0.00 0.00 0.00 59 1021.1
20260831223636 92 153 1.0 1.0 0.00 0.00 0.00 58 1020.9
20260831223132 92 158 1.0 2.0 0.00 0.00 0.00 57 1021.2
20260831222627 92 148 0.0 3.0 0.00 0.00 0.00 56 1021.0
20260831222123 93 163 1.0 2.0 0.00 0.00 0.00 56 1021.1
20260831221619 93 200 1.0 2.0 0.00 0.00 0.00 55 1021.2
20260831221114 94 169 1.0 3.0 0.00 0.00 0.00 54 1021.2
20260831220608 95 200 4.0 5.0 0.00 0.00 0.00 53 1021.3
20260831220104 96 177 0.0 2.0 0.00 0.00 0.00 53 1021.5
20260831215559 96 241 1.0 2.0 0.00 0.00 0.00 52 1021.4
20260831215054 96 153 0.0 3.0 0.00 0.00 0.00 52 1021.6
20260831214547 97 181 0.0 2.0 0.00 0.00 0.00 51 1021.4
20260831214042 97 150 0.0 1.0 0.00 0.00 0.00 52 1021.5
20260831213539 97 145 0.0 1.0 0.00 0.00 0.00 53 1021.5
20260831213034 97 169 1.0 1.0 0.00 0.00 0.00 53 1021.9
20260831212530 96 156 0.0 1.0 0.00 0.00 0.00 54 1021.6
20260831212025 96 145 0.0 2.0 0.00 0.00 0.00 54 1021.5
20260831211520 96 152 0.0 2.0 0.00 0.00 0.00 52 1021.6
20260831211019 97 189 2.0 2.0 0.00 0.00 0.00 51 1021.7
20260831210514 98 132 1.0 3.0 0.00 0.00 0.00 51 1021.7
20260831210010 97 148 0.0 2.0 0.00 0.00 0.00 52 1021.8
20260831205505 97 225 0.0 3.0 0.00 0.00 0.00 53 1022.0
20260831205001 97 147 1.0 3.0 0.00 0.00 0.00 54 1021.7
20260831204500 96 148 1.0 1.0 0.00 0.00 0.00 54 1022.0
20260831203954 96 176 1.0 2.0 0.00 0.00 0.00 54 1022.0
20260831203453 97 149 0.0 3.0 0.00 0.00 0.00 53 1021.9
20260831202951 98 166 2.0 2.0 0.00 0.00 0.00 53 1022.0
20260831202447 98 151 2.0 5.0 0.00 0.00 0.00 53 1022.1
20260831201946 97 220 0.0 1.0 0.00 0.00 0.00 54 1022.1
20260831201445 97 196 2.0 3.0 0.00 0.00 0.00 52 1022.3
20260831200941 98 149 1.0 2.0 0.00 0.00 0.00 52 1022.2
20260831200436 97 156 0.0 1.0 0.00 0.00 0.00 54 1022.3
20260831195935 97 148 1.0 2.0 0.00 0.00 0.00 53 1022.2
20260831195431 97 150 1.0 5.0 0.00 0.00 0.00 53 1022.4
20260831194926 96 183 3.0 5.0 0.00 0.00 0.00 54 1022.6
20260831194422 97 244 1.0 3.0 0.00 0.00 0.00 55 1022.5
20260831193921 96 143 0.0 1.0 0.00 0.00 0.00 55 1022.7
20260831193416 98 141 2.0 2.0 0.00 0.00 0.00 54 1022.5
20260831192911 97 148 0.0 2.0 0.00 0.00 0.00 54 1022.8
20260831192406 96 159 1.0 1.0 0.00 0.00 0.00 56 1022.6
20260831191902 96 148 1.0 5.0 0.00 0.00 0.00 55 1022.9
20260831191358 96 107 3.0 3.0 0.00 0.00 0.00 56 1022.8
20260831190854 95 211 2.0 2.0 0.00 0.00 0.00 58 1022.9
20260831190353 94 173 1.0 3.0 0.00 0.00 0.00 59 1023.1
20260831185853 93 162 0.0 2.0 0.00 0.00 0.00 60 1022.8
20260831185349 92 150 1.0 1.0 0.00 0.00 0.00 60 1023.1
20260831184848 93 132 2.0 3.0 0.00 0.00 0.00 58 1023.3
20260831184343 94 187 3.0 5.0 0.00 0.00 0.00 57 1023.3
20260831183838 94 154 2.0 3.0 0.00 0.00 0.00 58 1023.3
20260831183333 95 167 1.0 5.0 0.00 0.00 0.00 57 1023.4
20260831182832 95 131 1.0 2.0 0.00 0.00 0.00 57 1023.4
20260831182327 95 163 2.0 3.0 0.00 0.00 0.00 57 1023.4
20260831181823 95 154 1.0 3.0 0.00 0.00 0.00 58 1023.3
20260831181318 95 229 2.0 5.0 0.00 0.00 0.00 58 1023.5
20260831180812 95 182 1.0 6.0 0.00 0.00 0.00 58 1023.3
20260831180307 94 146 1.0 2.0 0.00 0.00 0.00 59 1023.5
20260831175806 93 163 2.0 3.0 0.00 0.00 0.00 59 1023.6
20260831175306 94 151 1.0 2.0 0.00 0.00 0.00 58 1023.7
20260831174758 95 142 2.0 6.0 0.00 0.00 0.00 58 1023.5
20260831174254 95 249 3.0 5.0 0.00 0.00 0.00 59 1023.6
20260831173753 95 148 0.0 2.0 0.00 0.00 0.00 59 1023.6
20260831173247 94 144 0.0 1.0 0.00 0.00 0.00 61 1023.7
20260831172742 93 177 1.0 2.0 0.00 0.00 0.00 62 1023.6
20260831172237 93 71 1.0 5.0 0.00 0.00 0.00 62 1023.8
20260831171732 91 144 0.0 2.0 0.00 0.00 0.00 64 1023.7
20260831171230 90 155 1.0 3.0 0.00 0.00 0.00 64 1023.8
20260831170726 91 153 2.0 3.0 0.00 0.00 0.00 62 1024.0
20260831170222 92 150 1.0 2.0 0.00 0.00 0.00 61 1024.0
20260831165718 93 157 2.0 2.0 0.00 0.00 0.00 61 1024.0
20260831165214 93 222 1.0 2.0 0.00 0.00 0.00 61 1024.1
20260831164704 93 123 1.0 6.0 0.00 0.00 0.00 62 1023.9
20260831164200 92 251 2.0 3.0 0.00 0.00 0.00 62 1024.0
20260831163655 93 143 1.0 1.0 0.00 0.00 0.00 62 1024.0
20260831163151 92 145 2.0 3.0 0.00 0.00 0.00 62 1023.9
20260831162650 92 142 1.0 2.0 0.00 0.00 0.00 63 1024.0
20260831162148 91 142 2.0 3.0 0.00 0.00 0.00 64 1024.1
20260831161644 92 229 3.0 3.0 0.00 0.00 0.00 64 1024.1
20260831161140 93 156 1.0 3.0 0.00 0.00 0.00 64 1024.2
20260831160639 92 159 1.0 3.0 0.00 0.00 0.00 64 1024.1
20260831160135 92 194 3.0 3.0 0.00 0.00 0.00 64 1024.2
20260831155634 92 165 3.0 3.0 0.00 0.00 0.00 66 1024.2
20260831155130 92 160 1.0 3.0 0.00 0.00 0.00 67 1024.2
20260831154625 91 146 0.0 2.0 0.00 0.00 0.00 67 1024.3
20260831154120 91 237 1.0 2.0 0.00 0.00 0.00 68 1024.2
20260831153619 91 148 2.0 5.0 0.00 0.00 0.00 69 1024.2
20260831153116 91 152 1.0 2.0 0.00 0.00 0.00 71 1024.1
20260831152611 91 234 1.0 2.0 0.00 0.00 0.00 73 1024.2
20260831152107 90 150 0.0 1.0 0.00 0.00 0.00 75 1024.1
20260831151606 89 137 0.0 1.0 0.00 0.00 0.00 76 1024.2
20260831151101 88 151 0.0 1.0 0.00 0.00 0.00 77 1024.4
20260831150556 88 178 1.0 2.0 0.00 0.00 0.00 79 1024.2
20260831150052 87 152 0.0 1.0 0.00 0.00 0.00 81 1024.3
20260831145546 86 135 1.0 1.0 0.00 0.00 0.00 83 1024.3
20260831145042 86 147 1.0 1.0 0.00 0.00 0.00 85 1024.6
20260831144538 85 151 1.0 1.0 0.00 0.00 0.00 86 1024.4
20260831144033 84 147 0.0 2.0 0.00 0.00 0.00 88 1024.4
20260831143527 84 153 1.0 1.0 0.00 0.00 0.00 90 1024.2
20260831143023 82 154 0.0 1.0 0.00 0.00 0.00 91 1024.2
20260831142520 82 148 0.0 1.0 0.00 0.00 0.00 93 1024.2
20260831142014 81 151 1.0 3.0 0.00 0.00 0.00 95 1024.2
20260831141508 79 153 0.0 1.0 0.00 0.00 0.00 96 1024.1
20260831141003 78 169 1.0 2.0 0.00 0.00 0.00 97 1024.3
20260831140502 78 144 0.0 0.0 0.00 0.00 0.00 98 1024.1
20260831140001 77 150 0.0 0.0 0.00 0.00 0.00 99 1024.0
20260831135459 76 172 0.0 0.0 0.00 0.00 0.00 99 1024.2
20260831134954 76 147 0.0 0.0 0.00 0.00 0.00 99 1024.2
20260831134451 75 146 0.0 0.0 0.00 0.00 0.00 99 1024.2
20260831133946 74 149 0.0 0.0 0.00 0.00 0.00 99 1024.2
20260831133445 74 142 0.0 0.0 0.00 0.00 0.00 99 1024.1
20260831132941 73 143 0.0 0.0 0.00 0.00 0.00 99 1024.1
20260831132436 73 143 0.0 0.0 0.00 0.00 0.00 99 1024.2
20260831131936 72 146 0.0 0.0 0.00 0.00 0.00 99 1024.3
20260831131431 72 147 0.0 0.0 0.00 0.00 0.00 99 1024.1
20260831130926 72 147 0.0 0.0 0.00 0.00 0.00 99 1024.1
20260831130422 71 147 0.0 0.0 0.00 0.00 0.00 99 1024.1
20260831125921 71 147 0.0 0.0 0.00 0.00 0.00 99 1024.1
20260831125416 71 147 0.0 0.0 0.00 0.00 0.00 99 1023.9
20260831124912 71 147 0.0 0.0 0.00 0.00 0.00 99 1024.0
20260831124408 70 147 0.0 0.0 0.00 0.00 0.00 99 1023.9
20260831123903 70 147 0.0 0.0 0.00 0.00 0.00 99 1023.7
20260831123401 70 147 0.0 0.0 0.00 0.00 0.00 99 1023.9
20260831122856 69 147 0.0 0.0 0.00 0.00 0.00 99 1023.8
20260831122351 69 147 0.0 0.0 0.00 0.00 0.00 99 1023.7
20260831121846 69 147 0.0 0.0 0.00 0.00 0.00 99 1023.9
20260831121342 69 147 0.0 0.0 0.00 0.00 0.00 99 1023.7
20260831120838 68 147 0.0 0.0 0.00 0.00 0.00 99 1023.9
20260831120332 68 147 0.0 0.0 0.00 0.00 0.00 99 1023.6
20260831115827 68 147 0.0 0.0 0.00 0.00 0.00 99 1023.7
20260831115324 68 147 0.0 0.0 0.00 0.00 0.00 99 1023.8
20260831114823 68 147 0.0 0.0 0.00 0.00 0.00 99 1023.6
20260831114321 68 148 0.0 0.0 0.00 0.00 0.00 99 1023.6
20260831113817 68 149 0.0 0.0 0.00 0.00 0.00 99 1023.4
20260831113312 68 148 0.0 0.0 0.00 0.00 0.00 99 1023.5
20260831112811 69 148 0.0 0.0 0.00 0.00 0.00 99 1023.5
20260831112301 69 148 0.0 0.0 0.00 0.00 0.00 99 1023.5
20260831111756 69 149 0.0 0.0 0.00 0.00 0.00 99 1023.1
20260831111253 68 148 0.0 0.0 0.00 0.00 0.00 99 1023.3
20260831110748 69 148 0.0 0.0 0.00 0.00 0.00 99 1023.1
20260831110243 69 148 0.0 0.0 0.00 0.00 0.00 99 1023.1
20260831105742 69 148 0.0 0.0 0.00 0.00 0.00 99 1023.0
20260831105238 68 148 0.0 0.0 0.00 0.00 0.00 99 1022.8
20260831104732 68 148 0.0 0.0 0.00 0.00 0.00 99 1023.0
20260831104229 69 148 0.0 0.0 0.00 0.00 0.00 99 1023.1
20260831103729 69 148 0.0 0.0 0.00 0.00 0.00 99 1022.9
20260831103224 69 145 0.0 0.0 0.00 0.00 0.00 99 1022.6
20260831102724 69 145 0.0 0.0 0.00 0.00 0.00 99 1022.7
20260831102219 69 145 0.0 0.0 0.00 0.00 0.00 99 1022.7
20260831101715 69 145 0.0 0.0 0.00 0.00 0.00 99 1022.6
20260831101210 69 145 0.0 0.0 0.00 0.00 0.00 99 1022.5
20260831100706 69 145 0.0 0.0 0.00 0.00 0.00 99 1022.6
20260831100202 69 145 0.0 0.0 0.00 0.00 0.00 99 1022.5
20260831095700 69 145 0.0 0.0 0.00 0.00 0.00 99 1022.4
20260831095155 69 145 0.0 0.0 0.00 0.00 0.00 99 1022.4
20260831094650 69 145 0.0 0.0 0.00 0.00 0.00 99 1022.3
20260831094146 69 145 0.0 0.0 0.00 0.00 0.00 99 1022.1
20260831093641 69 145 0.0 0.0 0.00 0.00 0.00 99 1022.2
20260831093137 69 145 0.0 0.0 0.00 0.00 0.00 99 1022.3
20260831092633 69 145 0.0 0.0 0.00 0.00 0.00 99 1021.9
20260831092128 69 145 0.0 0.0 0.00 0.00 0.00 99 1022.2
20260831091623 69 145 0.0 0.0 0.00 0.00 0.00 99 1022.0
20260831091118 69 145 0.0 0.0 0.00 0.00 0.00 99 1021.8
20260831090614 69 145 0.0 0.0 0.00 0.00 0.00 99 1022.2
20260831090110 69 145 0.0 0.0 0.00 0.00 0.00 99 1022.0
20260831085605 69 145 0.0 0.0 0.00 0.00 0.00 99 1022.2
20260831085100 69 145 0.0 0.0 0.00 0.00 0.00 99 1022.1
20260831084556 69 145 0.0 0.0 0.00 0.00 0.00 99 1022.1
20260831084052 69 145 0.0 0.0 0.00 0.00 0.00 99 1022.1
20260831083548 69 145 0.0 0.0 0.00 0.00 0.00 98 1022.0
20260831083042 69 145 0.0 0.0 0.00 0.00 0.00 98 1021.9
20260831082536 69 145 0.0 0.0 0.00 0.00 0.00 98 1021.8
20260831082031 69 145 0.0 0.0 0.00 0.00 0.00 98 1022.0
20260831081527 69 145 0.0 0.0 0.00 0.00 0.00 98 1021.9
20260831081022 69 145 0.0 0.0 0.00 0.00 0.00 98 1021.9
20260831080516 69 148 0.0 0.0 0.00 0.00 0.00 98 1021.8
20260831080012 69 148 0.0 0.0 0.00 0.00 0.00 98 1021.9
20260831075507 69 148 0.0 0.0 0.00 0.00 0.00 98 1021.7
20260831075003 69 148 0.0 0.0 0.00 0.00 0.00 98 1021.7
20260831074502 69 146 0.0 0.0 0.00 0.00 0.00 98 1021.9
20260831073957 70 146 0.0 0.0 0.00 0.00 0.00 98 1022.0
20260831073457 70 146 0.0 0.0 0.00 0.00 0.00 98 1021.9
20260831072955 70 146 0.0 0.0 0.00 0.00 0.00 98 1022.0
20260831072452 70 146 0.0 0.0 0.00 0.00 0.00 98 1022.0
20260831071948 70 146 0.0 0.0 0.00 0.00 0.00 98 1022.1
20260831071446 70 146 0.0 0.0 0.00 0.00 0.00 98 1022.2
20260831070941 70 146 0.0 0.0 0.00 0.00 0.00 98 1022.5
20260831070435 70 146 0.0 0.0 0.00 0.00 0.00 98 1022.0
20260831065935 70 146 0.0 0.0 0.00 0.00 0.00 97 1022.2
20260831065433 70 146 0.0 0.0 0.00 0.00 0.00 97 1022.3
20260831064927 70 147 0.0 0.0 0.00 0.00 0.00 97 1022.3
20260831064422 70 147 0.0 0.0 0.00 0.00 0.00 97 1022.1
20260831063918 70 147 0.0 0.0 0.00 0.00 0.00 97 1022.3
20260831063413 70 147 0.0 0.0 0.00 0.00 0.00 97 1022.4
20260831062908 70 147 0.0 0.0 0.00 0.00 0.00 97 1022.5
20260831062403 70 147 0.0 0.0 0.00 0.00 0.00 97 1022.5
20260831061902 70 147 0.0 0.0 0.00 0.00 0.00 97 1022.3
20260831061401 70 147 0.0 0.0 0.00 0.00 0.00 97 1022.6
20260831060858 70 146 0.0 0.0 0.00 0.00 0.00 97 1022.6
20260831060357 70 146 0.0 0.0 0.00 0.00 0.00 97 1022.6
20260831055851 70 146 0.0 0.0 0.00 0.00 0.00 97 1022.7
20260831055346 70 146 0.0 0.0 0.00 0.00 0.00 97 1022.7
20260831054842 70 147 0.0 0.0 0.00 0.00 0.00 96 1022.6
20260831054337 71 147 0.0 0.0 0.00 0.00 0.00 96 1022.6
20260831053836 71 147 0.0 0.0 0.00 0.00 0.00 96 1022.4
20260831053335 71 147 0.0 0.0 0.00 0.00 0.00 96 1022.4
20260831052829 71 147 0.0 0.0 0.00 0.00 0.00 96 1022.4
20260831052329 71 148 0.0 0.0 0.00 0.00 0.00 96 1022.6
20260831051827 71 146 0.0 0.0 0.00 0.00 0.00 96 1022.4
20260831051326 71 145 0.0 0.0 0.00 0.00 0.00 96 1022.4
20260831050821 71 145 0.0 0.0 0.00 0.00 0.00 96 1022.3
20260831050320 71 145 0.0 0.0 0.00 0.00 0.00 96 1022.3
20260831045814 71 145 0.0 0.0 0.00 0.00 0.00 96 1022.3
20260831045308 71 145 0.0 0.0 0.00 0.00 0.00 95 1022.3
20260831044804 71 145 0.0 0.0 0.00 0.00 0.00 95 1022.4
20260831044258 71 142 0.0 0.0 0.00 0.00 0.00 95 1022.7
20260831043754 71 146 0.0 0.0 0.00 0.00 0.00 95 1022.7
20260831043248 72 146 0.0 0.0 0.00 0.00 0.00 95 1022.5
20260831042743 72 146 0.0 0.0 0.00 0.00 0.00 95 1022.5
20260831042237 72 146 0.0 0.0 0.00 0.00 0.00 95 1022.4
20260831041732 72 146 0.0 0.0 0.00 0.00 0.00 95 1022.5
20260831041232 72 147 0.0 0.0 0.00 0.00 0.00 94 1022.6
20260831040727 72 149 0.0 0.0 0.00 0.00 0.00 94 1022.7
20260831040227 72 146 0.0 0.0 0.00 0.00 0.00 94 1022.6
20260831035725 73 150 0.0 0.0 0.00 0.00 0.00 94 1022.3
20260831035224 73 142 0.0 0.0 0.00 0.00 0.00 94 1022.4
20260831034723 73 142 0.0 0.0 0.00 0.00 0.00 93 1022.4
20260831034220 73 142 0.0 0.0 0.00 0.00 0.00 93 1022.7
20260831033715 73 147 0.0 0.0 0.00 0.00 0.00 93 1022.3
20260831033214 73 147 0.0 0.0 0.00 0.00 0.00 93 1022.3
20260831032709 73 148 0.0 0.0 0.00 0.00 0.00 93 1022.3
20260831032205 73 147 0.0 0.0 0.00 0.00 0.00 92 1022.3
20260831031659 73 146 0.0 0.0 0.00 0.00 0.00 92 1022.2
20260831031159 74 147 0.0 0.0 0.00 0.00 0.00 92 1022.3
20260831030658 74 147 0.0 0.0 0.00 0.00 0.00 91 1022.2
20260831030157 74 146 0.0 0.0 0.00 0.00 0.00 91 1022.4
20260831025655 74 147 0.0 0.0 0.00 0.00 0.00 91 1022.5
20260831025150 74 147 0.0 0.0 0.00 0.00 0.00 90 1022.4
20260831024647 74 147 0.0 0.0 0.00 0.00 0.00 90 1022.5
20260831024145 75 147 0.0 0.0 0.00 0.00 0.00 90 1022.5
20260831023644 75 147 0.0 0.0 0.00 0.00 0.00 89 1022.6
20260831023138 75 147 0.0 0.0 0.00 0.00 0.00 89 1022.4
20260831022633 75 147 0.0 0.0 0.00 0.00 0.00 89 1022.4
20260831022128 75 147 0.0 0.0 0.00 0.00 0.00 88 1022.6
20260831021627 75 147 0.0 0.0 0.00 0.00 0.00 88 1022.6
20260831021122 75 149 0.0 0.0 0.00 0.00 0.00 87 1022.2
20260831020618 76 145 0.0 0.0 0.00 0.00 0.00 87 1022.1
20260831020112 76 148 0.0 0.0 0.00 0.00 0.00 86 1022.2
20260831015608 76 147 0.0 0.0 0.00 0.00 0.00 85 1022.2
20260831015103 76 147 0.0 0.0 0.00 0.00 0.00 85 1021.8
20260831014557 77 147 0.0 0.0 0.00 0.00 0.00 84 1022.0
20260831014053 77 147 0.0 0.0 0.00 0.00 0.00 84 1021.8
20260831013549 77 147 0.0 0.0 0.00 0.00 0.00 83 1021.6
20260831013043 77 147 0.0 0.0 0.00 0.00 0.00 82 1021.7
20260831012543 78 147 0.0 0.0 0.00 0.00 0.00 82 1021.8
20260831012043 78 147 0.0 0.0 0.00 0.00 0.00 81 1021.9
20260831011543 78 147 0.0 0.0 0.00 0.00 0.00 80 1021.9
20260831011038 78 147 0.0 0.0 0.00 0.00 0.00 79 1021.9
20260831010534 79 147 0.0 0.0 0.00 0.00 0.00 78 1021.7
20260831010030 79 147 0.0 0.0 0.00 0.00 0.00 77 1021.8
20260831005525 79 148 0.0 0.0 0.00 0.00 0.00 76 1021.7
20260831005024 80 148 0.0 0.0 0.00 0.00 0.00 75 1021.7
20260831004520 80 148 0.0 0.0 0.00 0.00 0.00 74 1021.7
20260831004016 81 150 0.0 0.0 0.00 0.00 0.00 72 1021.2